Hourly Weather Roundup
Issued by NWS Central Illinois

Home | Current Version | Previous Version | Text Only | Print | Product List | Glossary On
Versions: 1 2 3 4 5 6 7 8 9 10 11 12 13 14 15 16 17 18 19 20 21 22 23 24 25 26 27 28 29 30 31 32 33 34 35 36 37 38 39 40 41 42 43 44 45 46 47 48 49 50
000
NZUS43 KILX 191710
HWRILX

Area Weather Roundup
National Weather Service Lincoln IL
1200 PM CDT THU OCT 19 2017

NOTE:  "FAIR" indicates few or no clouds below 12,000 feet, with
       no sigificant weather and/or obstructions to visibility.


CITY           SKY/WX    TMP DP  RH WIND       PRES   REMARKS
Bloomington    SUNNY     69  51  52 CALM      30.20S
Champaign      SUNNY     71  50  47 CALM      30.20F
Danville       SUNNY     68  51  53 CALM      30.18S
Decatur        SUNNY     68  52  56 W3        30.20S
Effingham      SUNNY     73  51  45 W3        30.23S
Flora          SUNNY     73  53  49 CALM      30.22S
Galesburg      SUNNY     74  58  58 E8        30.19S
Jacksonville   SUNNY     70  51  51 CALM      30.18S
Lacon          SUNNY     68  37  32 E8        30.19S
Lawrenceville  SUNNY     70  53  54 SW5       30.23F
Litchfield     SUNNY     70  51  50 CALM      30.20S
$$


CITY           SKY/WX    TMP DP  RH WIND       PRES   REMARKS
Lincoln        SUNNY     70  53  55 CALM      30.19S
Macomb         SUNNY     69  50  50 SE3       30.20S
Mattoon        SUNNY     70  53  54 W3        30.21R
Mt Carmel AP   SUNNY     70  50  49 S6        30.23S
Olney-Noble AP SUNNY     71  48  45 W3        30.23S
Paris AP       SUNNY     71  52  51 SW6       30.21F
Peoria         SUNNY     67  52  58 E3        30.19R
Pontiac        SUNNY     67  41  37 E5        30.20S
Rantoul        SUNNY     69  53  56 CALM      30.19S
Robinson       SUNNY     70  51  51 SW7       30.24S
Springfield    SUNNY     73  53  49 CALM      30.19S
Taylorville    SUNNY     72  50  47 S3        30.20S
$$

...REGIONAL REPORTS...


CITY           SKY/WX    TMP DP  RH WIND       PRES   REMARKS
Chicago O`Hare MOSUNNY   66  26  22 VRB3      30.19S
Kankakee       SUNNY     67  39  36 NE3       30.20S
Moline         SUNNY     69  39  33 E10       30.18R
Mount Sterling SUNNY     69  52  53 CALM      30.17S
Mount Vernon   SUNNY     72  54  53 SW6       30.22F
Pittsfield     SUNNY     71  52  50 SE3       30.18S
Quincy         SUNNY     69  50  50 CALM      30.17S
Rockford       PTSUNNY   65  28  24 VRB3      30.20S
$$


CITY           SKY/WX    TMP DP  RH WIND       PRES   REMARKS
Burlington     SUNNY     67  53  61 S6        30.16F
Cedar Rapids   SUNNY     67  31  26 SE13      30.16S
Des Moines     PTSUNNY   68  36  30 SE10      30.12F
Kirksville     SUNNY     69  55  60 SE5       30.16S
Ottumwa        SUNNY     68  51  54 SE9       30.14F
St Louis       MOSUNNY   74  50  42 NW8       30.20S
$$


CITY           SKY/WX    TMP DP  RH WIND       PRES   REMARKS
Terre Haute    SUNNY     68  49  50 VRB5      30.22F
Evansville     SUNNY     69  49  48 SW9       30.26R
Indianapolis   MOSUNNY   69  51  52 SW8       30.20F
Lafayette      SUNNY     65  52  62 SW6       30.19F
Madison        PTSUNNY   65  29  25 NW3       30.17S
Milwaukee      PTSUNNY   66  27  23 VRB6      30.18R
$$






USA.gov is the U.S. government's official web portal to all federal, state and local government web resources and services.